Regional Weather Roundup
Issued by NWS Cleveland, OH

Home | Current Version | Previous Version | Text Only | Print | Product List | Glossary Off
Versions: 1 2 3 4 5 6 7 8 9 10 11 12 13 14 15 16 17 18 19 20 21 22 23 24 25 26 27 28 29 30 31 32 33 34 35 36 37 38 39 40 41 42 43 44 45 46 47 48 49 50

000
ASUS41 KCLE 310700
RWRCLE
OHIO REGIONAL WEATHER ROUNDUP
NATIONAL WEATHER SERVICE WILMINGTON, OH
300 AM EDT MON AUG 31 2015

NOTE: "FAIR" INDICATES FEW OR NO CLOUDS BELOW 12,000 FEET WITH NO
SIGNIFICANT WEATHER AND/OR OBSTRUCTIONS TO VISIBILITY.

OHZ001>008-015>018-024>027-034-035-043-044-310800-
   NORTHWEST OHIO

CITY           SKY/WX    TMP DP  RH WIND       PRES   REMARKS
DEFIANCE       FOG       67  66  97 CALM      30.05S VSB 1/2
FINDLAY        CLEAR     69  65  86 SW3       30.05S
TOLEDO EXPRESS CLEAR     66  65  96 CALM      30.03F
TOLEDO EXEC    CLEAR     67  64  90 S5        30.04F
LIMA           CLEAR     67  65  93 S3        30.06F
$$

OHZ009>014-019>023-028>033-038-089-310800-
   NORTHEAST OHIO

CITY           SKY/WX    TMP DP  RH WIND       PRES   REMARKS
CLE-HOPKINS    PTCLDY    70  64  81 S6        30.07S
CLE-LAKEFRONT  PTCLDY    74  64  71 S8        30.03F
CUY CO. ARPT   NOT AVBL
LORAIN-ELYRIA  CLEAR     67  63  87 CALM      30.06S
ASHTABULA      CLEAR     67  66  97 S5        30.06F
AKRON-CANTON   PTCLDY    69  64  84 S5        30.08F
WOOSTER        NOT AVBL
MANSFIELD      CLEAR     67  65  93 S8        30.08S
YOUNGSTOWN     MOCLDY    69  64  84 SW5       30.07F
$$

OHZ042-051>053-060>062-070>072-077>081-310800-
  SOUTHWEST OHIO

CITY           SKY/WX    TMP DP  RH WIND       PRES   REMARKS
CINC-COVINGTON PTCLDY    69  66  90 SW3       30.09S
CINC-LUNKEN    PTCLDY    67  67 100 CALM      30.08F
HAMILTON       CLEAR     65  64  97 CALM      30.09S FOG
DAYTON         NOT AVBL
WRIGHT-PAT AFB CLEAR     67  65  94 VRB1      30.08S
DAYTON GENERAL PTCLDY    67  65  93 SW3       30.08F
WILMINGTON     CLEAR     67  64  90 SW3       30.09F
$$

OHZ036-037-039>041-045>050-054>059-063>069-073>076-082>088-310800-
  CENTRAL AND SOUTHEAST OHIO

CITY           SKY/WX    TMP DP  RH WIND       PRES   REMARKS
COLUMBUS       PTCLDY    70  65  84 CALM      30.07F
OSU AIRPORT    CLEAR     67  65  93 CALM      30.08S
BOLTON FIELD   NOT AVBL
RICKENBACK AFB NOT AVBL
NEWARK         FOG       65  64  97 CALM      30.08S VSB 1/2
MARION         CLEAR     66  63  90 S5        30.07F
LANCASTER      CLEAR     64  62  93 CALM      30.08F
ZANESVILLE     CLEAR     66  63  90 CALM      30.08F FOG
NEW PHILLY     PTCLDY    67  65  93 SE5       30.09F
$$


USA.gov is the U.S. government's official web portal to all federal, state and local government web resources and services.